260  
ASGM40 PGUM 201410  
RWRGUM  
WEATHER ROUNDUP FOR THE MARIANAS  
NATIONAL WEATHER SERVICE TIYAN GU  
1200 AM CHST MON OCT 21 2019  
 
GUZ001>004-201500-  
MARIANA ISLANDS-  
 
CITY SKY/WX TMP DP RH WIND PRES REMARKS
 
GUAM AIRPORT CLEAR 79 73 83 NW5 29.86F  
ANDERSEN AFB PTCLDY 79 75 89 NE9 29.87S  
ROTA AIRPORT NOT AVBL  
TINIAN AP NOT AVBL  
SAIPAN AP CLEAR 79 79 100 N6 29.86F  
 

 
 
 
 
CLICK HERE TO GO TO PREVIOUS BULLETINS.

The Nexlab GU Page Main Text Page